Miscellaneous Local Product
Issued by NWS Hastings, NE

Home | Current Version | Previous Version | Graphics & Text | Print | Product List | Glossary On
Versions: 1 2 3 4 5 6 7 8 9 10 11 12 13 14 15 16 17 18 19 20 21 22 23 24 25 26 27 28 29 30 31 32 33 34 35 36 37 38 39 40 41 42 43 44 45 46 47 48 49 50
814
AXUS43 KGID 281402
MISGRI

GID CWA HOURLY WEATHER ROUNDUP
NATIONAL WEATHER SERVICE HASTINGS NE
900 AM CDT THU APR 28 2016

NOTE: "FAIR" INDICATES FEW OR NO CLOUDS BELOW 12,000 FEET WITH NO
SIGNIFICANT WEATHER AND/OR OBSTRUCTIONS TO VISIBILITY.

...SOUTH CENTRAL NEBRASKA...

CITY           SKY/WX    TMP DP  RH WIND       PRES   REMARKS
GRAND ISLAND   CLOUDY    41  40  96 NW17      29.92R
HASTINGS       CLOUDY    42  37  82 NW21      29.92R
KEARNEY        PTSUNNY   41  34  75 NW16G22   29.95R
ORD            CLOUDY    40  38  93 NW15      29.93R FOG     WCI  32
YORK           CLOUDY    45  41  87 NW18      29.89R
AURORA         CLOUDY    43  42  97 NW21      29.90R
LEXINGTON      FAIR      41  35  80 N17       29.96R
HOLDREGE       FAIR      40  35  82 NW12      29.97R WCI  33
HEBRON         CLOUDY    44  40  86 NW10G16   29.94R

...NEBRASKA PANHANDLE...

CITY           SKY/WX    TMP DP  RH WIND       PRES   REMARKS
CHADRON        CLOUDY    34  31  88 N7        30.03R WCI  28
ALLIANCE       CLOUDY    32  29  88 N9        29.99R WCI  24
SCOTTSBLUFF    PTSUNNY   38  28  67 NW9       30.00R WCI  31
SIDNEY         CLOUDY    35  28  75 N16       29.99R WCI  25

...WESTERN AND NORTH CENTRAL NEBRASKA...

CITY           SKY/WX    TMP DP  RH WIND       PRES   REMARKS
VALENTINE      CLOUDY    34  33  96 NW12      29.99R WCI  25
AINSWORTH      CLOUDY    35  35  99 NW16G22   29.97R FOG     WCI  25
ONEILL         CLOUDY    41  40  95 N8        29.93R FOG
BROKEN BOW     LGT RAIN  36  34  92 NW14      29.96R WCI  27
IMPERIAL       CLOUDY    35  30  82 N15       30.00S WCI  25
NORTH PLATTE   FAIR      39  32  76 N15       29.97S WCI  31
MCCOOK         FAIR      40  32  73 NW13      30.01R WCI  32

...EASTERN NEBRASKA...

CITY           SKY/WX    TMP DP  RH WIND       PRES   REMARKS
NORFOLK        CLOUDY    43  39  86 NW13      29.89R
SO SIOUX CITY  CLOUDY    44  41  89 N13       29.86R
TEKAMAH        CLOUDY    46  43  89 NW15      29.85R
COLUMBUS       CLOUDY    45  36  70 NW15      29.89R
ALBION         DRIZZLE   42  40  93 N10       29.90R
OMAHA EPPLEY   CLOUDY    47  43  86 NW15      29.83R
OFFUTT AFB     CLOUDY    47  45  93 NW12      29.83R
MILLARD        CLOUDY    46  43  88 NW9       29.84R
LINCOLN        CLOUDY    49  41  74 NW15      29.88R
NEBRASKA CITY  CLOUDY    47  45  94 NW14      29.85R
BEATRICE       CLOUDY    46  42  86 NW15G24   29.89R
FALLS CITY     CLOUDY    50  46  86 W12       29.86R

...NORTHERN KANSAS...

CITY           SKY/WX    TMP DP  RH WIND       PRES   REMARKS
GOODLAND       FAIR      39  29  67 N14       30.00R WCI  31
HILL CITY      FAIR      42  32  67 NW17      30.00R
NORTON         SUNNY     37  30  75 NW15      29.98S WCI  28
PHILLIPSBURG   PTSUNNY   43  34  70 NW14G20   29.99R
SMITH CENTER   MOSUNNY   41  36  81 NW13G18   29.99R
BELOIT         MOSUNNY   41  34  75 W12G20    29.96S
HAYS           FAIR      45  28  53 NW10      30.00R
RUSSELL        FAIR      43  33  68 NW15      29.98R
CONCORDIA      FAIR      44  37  76 NW12G20   29.94R
SALINA         FAIR      48  37  65 NW15      29.97R
TOPEKA         CLOUDY    48  40  73 W14G21    29.91S



USA.gov is the U.S. government's official web portal to all federal, state and local government web resources and services.